DECAYED
Showing default

AFRL-XVI, 56942 (Decayed)

Orbit data source: Space-Track

AFRL-XVI, 56942 was an American payload satellite in LEO that was launched on Mon, 12 Jun 2023 UTC via an FALCON 9 launch vehicle from the Air Force Western Test Range (AFWTR). Payload-class satellites include a variety of spacecraft equipped with specific instruments for various scientific and technological missions. These include communications satellites like Starlink; space stations such as the ISS; scientific satellites like the Hubble; Earth observation satellites from companies like Planet Labs, Umbra, and HawkEye 360; GPS; miniature CubeSats for education and research; and military/defense satellites.

Not visible in the next 10 days
Identifier
56942, 2023-084L
Orbit
Decayed
Country
Flag of USUS
Related business
Manufacturer
BLCAN/VIA
Mission
Decayed Defense Communications
Bus & Motor
CUBESAT 12U, Unknown motor
Mass
23 kg wet, 23 kg dry
Launch date (UTC)
2023-06-12 (3 years ago)
Launch vehicle
FALCON 9
Launch site
Air Force Western Test Range (AFWTR)
Object type
Payload
Rocket body
Debris
Shape & HBR
Box + 2 Pan + 1 Ant, 0.8 m
Radar Cross Section
0.203 m², Medium (>0.1 m² and < 1m²)

Expand to show TLE details & history
Last TLE update: 5 months ago

TLE from 5 months ago
0 AFRL-XVI
1 56942U 23084L   26007.02602201  .11573472  26533-5  39259-3 0  9996
2 56942  97.5421 169.5455 0008176 271.3488  88.6876 16.43996682144552
Epoch: 2026-01-07T00:37Z
TLE epoch observation values (Epoch: 2026-01-07T00:37:28.301Z)
Latitude
-0.00008°
Longitude
53.5772°
Altitude
158.327 km
Speed
7.811 km/s
True Right ascension
11h 18m 10s
True Declination
0° 00' 00"
Sunlit
Object was in full shadow at epoch
Visualization orbit readout
Latitude
Unknown
Longitude
Unknown
Altitude
Unknown
Speed
Unknown
Apparent Right ascension
Unknown
Apparent Declination
Unknown
Sunlit
N/A
Visualization observer readout
Local Sidereal Time
19:10:31
Azimuth
Unknown
Elevation
Unknown
Doppler factor
Unknown
Orbital elements
Apogee altitude
157.34 km
Perigee altitude
146.662 km
Semi-major axis
6,530.138 km
Eccentricity
0.00082
Inclination
97.5421°
RAAN
169.5455°
Arg. of periapsis
271.3488°
True anomaly
88.78127°
Mean anomaly
88.6876°
Eccentric anomaly
88.73443°
Mean motion
4.11301 °/min
Orbital period
87.53 mins
BSTAR
0.00039259
Loading maneuver chart data...
Computing Atmospheric mass density...
Loading historical data...
Loading historical data...
Loading historical data...
Loading historical data...
Loading historical data...
Loading historical data...
Loading historical data...

Documentation

Showing up to 5 results
|